DKH1156 RKSI-ZSWX

Flight info

Callsign DKH1156
Flight time N/A
Altitude 32000
Route BOPTA Z51 BEDES Y711 PONIK A593 LAMEN/K0850F320 A593 AKARA/K0850S0975 A593 PUD A599 JTN
Aircraft A321/M-SDE3FGHIRWY/LB1

Departure

Time N/A
Airport Incheon International Airport (RKSI)

Arrival

Time 2026-05-05 13:10
Airport Sunan Shuofang International Airport (ZSWX)
Time Latitude Longitude Altitude Speed Heading
2026-05-05 11:51 35.22089 126.33663 32358 ft 443 kts 192°
2026-05-05 11:51 35.19005 126.33087 32130 ft 452 kts 192°
2026-05-05 11:51 35.15879 126.32510 32100 ft 455 kts 191°
2026-05-05 11:52 35.09593 126.31383 32111 ft 457 kts 191°
2026-05-05 11:52 35.03286 126.30271 32110 ft 457 kts 191°
2026-05-05 11:53 34.96990 126.29162 32111 ft 457 kts 191°
2026-05-05 11:53 34.90706 126.28045 32113 ft 456 kts 191°
2026-05-05 11:54 34.84415 126.26928 32118 ft 456 kts 192°
2026-05-05 11:54 34.78130 126.25807 32125 ft 456 kts 192°
2026-05-05 11:55 34.71854 126.24694 32134 ft 456 kts 192°
2026-05-05 11:55 34.65576 126.23594 32143 ft 455 kts 192°
2026-05-05 11:56 34.59303 126.22486 32148 ft 455 kts 192°
2026-05-05 11:56 34.53029 126.21384 32150 ft 455 kts 192°
2026-05-05 11:57 34.46759 126.20285 32158 ft 455 kts 192°
2026-05-05 11:57 34.40539 126.19189 32157 ft 454 kts 192°
2026-05-05 11:58 34.34282 126.18100 32158 ft 454 kts 192°
2026-05-05 11:58 34.28036 126.17014 32157 ft 454 kts 192°
2026-05-05 11:59 34.21792 126.15923 32157 ft 453 kts 192°
2026-05-05 11:59 34.15547 126.14831 32161 ft 453 kts 192°
2026-05-05 12:00 34.09303 126.13744 32164 ft 452 kts 192°
2026-05-05 12:00 34.03071 126.12657 32168 ft 452 kts 192°
2026-05-05 12:01 33.96848 126.11575 32162 ft 452 kts 192°
2026-05-05 12:01 33.90628 126.10498 32162 ft 451 kts 192°
2026-05-05 12:02 33.84417 126.09426 32164 ft 451 kts 192°
2026-05-05 12:02 33.78211 126.08350 32172 ft 450 kts 192°
2026-05-05 12:03 33.72018 126.07279 32163 ft 449 kts 192°
2026-05-05 12:03 33.65871 126.06221 32166 ft 449 kts 192°
2026-05-05 12:04 33.59686 126.05158 32178 ft 448 kts 192°
2026-05-05 12:04 33.53507 126.04099 32166 ft 448 kts 193°
2026-05-05 12:05 33.47333 126.03043 32169 ft 447 kts 193°
2026-05-05 12:05 33.41167 126.01986 32175 ft 447 kts 193°
2026-05-05 12:06 33.35017 126.00932 32174 ft 446 kts 193°
2026-05-05 12:06 33.28876 125.99888 32179 ft 445 kts 193°
2026-05-05 12:07 33.22796 125.98853 32183 ft 444 kts 193°
2026-05-05 12:07 33.16683 125.97810 32178 ft 443 kts 193°
2026-05-05 12:08 33.10585 125.96777 32179 ft 442 kts 193°
2026-05-05 12:08 33.04500 125.95741 32181 ft 441 kts 194°
2026-05-05 12:09 32.98434 125.94707 32181 ft 440 kts 194°
2026-05-05 12:09 32.92379 125.93682 32185 ft 439 kts 194°
2026-05-05 12:10 32.87325 125.92829 32184 ft 438 kts 194°
2026-05-05 12:10 32.81298 125.91810 32182 ft 437 kts 194°
2026-05-05 12:11 32.75330 125.90800 32183 ft 436 kts 194°
2026-05-05 12:11 32.69333 125.89786 32180 ft 435 kts 194°
2026-05-05 12:12 32.63345 125.88779 32171 ft 434 kts 194°
2026-05-05 12:12 32.57361 125.87783 32178 ft 433 kts 194°
2026-05-05 12:13 32.51390 125.86789 32177 ft 433 kts 194°
2026-05-05 12:13 32.45438 125.85792 32172 ft 432 kts 194°
2026-05-05 12:14 32.39496 125.84787 32173 ft 431 kts 195°
2026-05-05 12:14 32.33558 125.83788 32171 ft 430 kts 195°
2026-05-05 12:15 32.27630 125.82798 32171 ft 430 kts 195°
2026-05-05 12:15 32.21709 125.81812 32172 ft 429 kts 195°
2026-05-05 12:16 32.15796 125.80824 32169 ft 428 kts 195°
2026-05-05 12:16 32.09896 125.79850 32168 ft 428 kts 195°
2026-05-05 12:17 32.04393 125.77764 32167 ft 409 kts 216°
2026-05-05 12:17 32.00307 125.73324 32166 ft 398 kts 237°
2026-05-05 12:18 31.98152 125.67356 32166 ft 399 kts 253°
2026-05-05 12:18 31.96761 125.61030 32159 ft 399 kts 253°
2026-05-05 12:19 31.95349 125.54709 32155 ft 399 kts 253°
2026-05-05 12:19 31.93932 125.48388 32149 ft 400 kts 253°
2026-05-05 12:20 31.92518 125.42054 32144 ft 400 kts 253°
2026-05-05 12:20 31.91097 125.35715 32135 ft 401 kts 253°
2026-05-05 12:21 31.89662 125.29368 32137 ft 402 kts 253°
2026-05-05 12:21 31.88220 125.23004 32137 ft 402 kts 253°
2026-05-05 12:22 31.86782 125.16645 32138 ft 403 kts 253°
2026-05-05 12:22 31.85332 125.10277 32138 ft 403 kts 253°
2026-05-05 12:23 31.83881 125.03899 32136 ft 404 kts 253°
2026-05-05 12:23 31.82433 124.97516 32138 ft 404 kts 253°
2026-05-05 12:24 31.81049 124.91106 32142 ft 405 kts 254°
2026-05-05 12:24 31.79683 124.84681 32140 ft 405 kts 254°
2026-05-05 12:25 31.78291 124.78258 32139 ft 406 kts 253°
2026-05-05 12:25 31.76889 124.71826 32135 ft 406 kts 254°
2026-05-05 12:26 31.75488 124.65393 32135 ft 407 kts 254°
2026-05-05 12:26 31.74080 124.58953 32133 ft 407 kts 253°
2026-05-05 12:27 31.72663 124.52502 32134 ft 408 kts 253°
2026-05-05 12:27 31.71238 124.46045 32135 ft 409 kts 254°
2026-05-05 12:28 31.69810 124.39581 32133 ft 409 kts 253°
2026-05-05 12:28 31.68376 124.33110 32129 ft 410 kts 253°
2026-05-05 12:29 31.66947 124.26638 32128 ft 410 kts 254°
2026-05-05 12:29 31.65511 124.20155 32125 ft 410 kts 253°
2026-05-05 12:30 31.64068 124.13672 32124 ft 411 kts 253°
2026-05-05 12:30 31.62612 124.07186 32126 ft 411 kts 253°
2026-05-05 12:31 31.61144 124.00702 32127 ft 411 kts 253°
2026-05-05 12:31 31.59717 123.94239 32123 ft 412 kts 254°
2026-05-05 12:32 31.58306 123.87724 32121 ft 412 kts 254°
2026-05-05 12:32 31.56887 123.81204 32120 ft 413 kts 254°
2026-05-05 12:33 31.55464 123.74685 32114 ft 413 kts 254°
2026-05-05 12:33 31.54032 123.68155 32115 ft 413 kts 254°
2026-05-05 12:34 31.52581 123.61632 32111 ft 414 kts 254°
2026-05-05 12:34 31.51128 123.55099 32106 ft 414 kts 254°
2026-05-05 12:35 31.49682 123.48563 32108 ft 415 kts 255°
2026-05-05 12:35 31.48392 123.41920 32100 ft 415 kts 256°
2026-05-05 12:36 31.47200 123.35339 32104 ft 416 kts 256°
2026-05-05 12:36 31.45970 123.28712 32108 ft 416 kts 256°
2026-05-05 12:37 31.44713 123.22094 32101 ft 417 kts 256°
2026-05-05 12:37 31.43436 123.15468 32095 ft 417 kts 256°
2026-05-05 12:38 31.42150 123.08843 32096 ft 418 kts 256°
2026-05-05 12:38 31.40868 123.02208 32095 ft 418 kts 256°
2026-05-05 12:39 31.39588 122.95564 32093 ft 419 kts 256°
2026-05-05 12:39 31.38304 122.88914 32088 ft 419 kts 256°
2026-05-05 12:40 31.37013 122.82254 32084 ft 420 kts 256°
2026-05-05 12:40 31.35715 122.75589 32084 ft 420 kts 256°
2026-05-05 12:41 31.34433 122.68906 32081 ft 421 kts 256°
2026-05-05 12:41 31.33164 122.62218 32167 ft 422 kts 256°
2026-05-05 12:42 31.31882 122.55512 32188 ft 423 kts 256°
2026-05-05 12:42 31.30593 122.48808 32189 ft 423 kts 256°
2026-05-05 12:43 31.29946 122.45440 31994 ft 425 kts 256°
2026-05-05 12:43 31.29300 122.42069 31487 ft 425 kts 256°
2026-05-05 12:43 31.28659 122.38686 31004 ft 427 kts 257°
2026-05-05 12:43 31.28022 122.35295 30523 ft 429 kts 257°
2026-05-05 12:44 31.27380 122.31875 30045 ft 431 kts 257°
2026-05-05 12:44 31.26737 122.28442 29485 ft 434 kts 257°
2026-05-05 12:44 31.26086 122.24983 28932 ft 437 kts 257°
2026-05-05 12:44 31.25428 122.21507 28392 ft 440 kts 257°
2026-05-05 12:45 31.24764 122.18009 27855 ft 443 kts 257°
2026-05-05 12:45 31.24095 122.14487 27333 ft 446 kts 257°
2026-05-05 12:45 31.23421 122.10944 26814 ft 448 kts 257°
2026-05-05 12:45 31.22739 122.07371 26314 ft 451 kts 257°
2026-05-05 12:46 31.22053 122.03781 25817 ft 454 kts 258°
2026-05-05 12:46 31.21363 122.00180 25328 ft 455 kts 258°
2026-05-05 12:46 31.20678 121.96612 24840 ft 445 kts 258°
2026-05-05 12:46 31.20009 121.93129 24367 ft 435 kts 258°
2026-05-05 12:47 31.19353 121.89714 23902 ft 426 kts 258°
2026-05-05 12:47 31.18712 121.86374 23413 ft 418 kts 258°
2026-05-05 12:47 31.18080 121.83092 22880 ft 411 kts 258°
2026-05-05 12:47 31.17458 121.79866 22352 ft 404 kts 258°
2026-05-05 12:48 31.17097 121.77706 21997 ft 399 kts 262°
2026-05-05 12:48 31.16646 121.73485 21322 ft 393 kts 264°
2026-05-05 12:48 31.16310 121.70335 20821 ft 389 kts 263°
2026-05-05 12:48 31.16081 121.68218 20482 ft 387 kts 263°
2026-05-05 12:49 31.15633 121.64112 19829 ft 383 kts 263°
2026-05-05 12:49 31.15405 121.62035 19503 ft 381 kts 263°
2026-05-05 12:49 31.15071 121.58977 19033 ft 377 kts 263°
2026-05-05 12:49 31.14740 121.55952 18567 ft 374 kts 263°
2026-05-05 12:50 31.14409 121.52955 18077 ft 371 kts 263°
2026-05-05 12:50 31.14081 121.49984 17550 ft 367 kts 263°
2026-05-05 12:50 31.13756 121.47042 17041 ft 364 kts 263°
2026-05-05 12:50 31.13437 121.44130 16533 ft 360 kts 263°
2026-05-05 12:51 31.13119 121.41247 16036 ft 357 kts 263°
2026-05-05 12:51 31.12828 121.38426 15553 ft 353 kts 266°
2026-05-05 12:51 31.12840 121.35578 15069 ft 349 kts 275°
2026-05-05 12:51 31.13254 121.32765 14585 ft 346 kts 285°
2026-05-05 12:52 31.13986 121.30252 14147 ft 343 kts 293°
2026-05-05 12:52 31.15007 121.27753 13653 ft 340 kts 295°
2026-05-05 12:52 31.16035 121.25281 13135 ft 337 kts 295°
2026-05-05 12:52 31.17051 121.22829 12610 ft 335 kts 295°
2026-05-05 12:53 31.18061 121.20386 12119 ft 332 kts 295°
2026-05-05 12:53 31.19039 121.18018 11888 ft 322 kts 295°
2026-05-05 12:53 31.19992 121.15708 11768 ft 309 kts 295°
2026-05-05 12:53 31.20908 121.13487 11639 ft 298 kts 295°
2026-05-05 12:54 31.22671 121.09206 11070 ft 289 kts 295°
2026-05-05 12:54 31.23540 121.07094 10701 ft 289 kts 295°
2026-05-05 12:54 31.24410 121.04979 10342 ft 288 kts 295°
2026-05-05 12:55 31.25277 121.02873 9992 ft 287 kts 295°
2026-05-05 12:55 31.26140 121.00773 9612 ft 286 kts 295°
2026-05-05 12:55 31.26998 120.98681 9237 ft 285 kts 295°
2026-05-05 12:55 31.27852 120.96598 8868 ft 283 kts 295°
2026-05-05 12:56 31.28704 120.94522 8496 ft 282 kts 295°
2026-05-05 12:56 31.29552 120.92461 8141 ft 281 kts 295°
2026-05-05 12:56 31.30402 120.90401 7787 ft 280 kts 294°
2026-05-05 12:56 31.31246 120.88357 7452 ft 279 kts 294°
2026-05-05 12:57 31.32090 120.86318 7110 ft 278 kts 294°
2026-05-05 12:57 31.32931 120.84287 6778 ft 277 kts 294°
2026-05-05 12:57 31.33767 120.82261 6456 ft 276 kts 294°
2026-05-05 12:57 31.34596 120.80244 6115 ft 275 kts 293°
2026-05-05 12:58 31.35420 120.78237 5878 ft 272 kts 293°
2026-05-05 12:58 31.36244 120.76233 5867 ft 274 kts 293°
2026-05-05 12:58 31.36980 120.74441 5867 ft 275 kts 293°
2026-05-05 12:58 31.37811 120.72422 5872 ft 275 kts 293°
2026-05-05 12:59 31.38650 120.70377 5865 ft 275 kts 293°
2026-05-05 12:59 31.39478 120.68355 5869 ft 276 kts 293°
2026-05-05 12:59 31.40302 120.66338 5644 ft 274 kts 293°
2026-05-05 13:00 31.41925 120.62359 4950 ft 272 kts 293°
2026-05-05 13:00 31.42738 120.60360 4613 ft 271 kts 292°
2026-05-05 13:01 31.45641 120.54801 3854 ft 265 kts 324°
2026-05-05 13:01 31.47284 120.53988 3856 ft 251 kts 349°
2026-05-05 13:01 31.48956 120.53992 3861 ft 233 kts 12°
2026-05-05 13:01 31.50468 120.54586 3891 ft 228 kts 21°
2026-05-05 13:02 31.51939 120.55225 3777 ft 222 kts 21°
2026-05-05 13:02 31.53385 120.55847 3255 ft 222 kts 21°
2026-05-05 13:02 31.54854 120.56478 2892 ft 219 kts 21°
2026-05-05 13:02 31.56242 120.57074 2855 ft 209 kts 22°
2026-05-05 13:03 31.57577 120.57648 2864 ft 206 kts 22°
2026-05-05 13:03 31.58930 120.58230 2854 ft 204 kts 22°
2026-05-05 13:03 31.60265 120.58782 2861 ft 204 kts 16°
2026-05-05 13:03 31.61652 120.58779 2858 ft 202 kts 345°
2026-05-05 13:04 31.62853 120.58006 2517 ft 197 kts 313°
2026-05-05 13:04 31.63565 120.56676 2144 ft 192 kts 286°
2026-05-05 13:04 31.64013 120.55205 1849 ft 191 kts 285°
2026-05-05 13:04 31.64476 120.53724 1868 ft 194 kts 285°
2026-05-05 13:05 31.64947 120.52228 1862 ft 197 kts 285°
2026-05-05 13:05 31.65069 120.50693 1866 ft 187 kts 250°
2026-05-05 13:05 31.64389 120.49479 1868 ft 176 kts 212°
2026-05-05 13:05 31.63301 120.48896 1864 ft 171 kts 197°
2026-05-05 13:06 31.62185 120.48419 1865 ft 169 kts 197°
2026-05-05 13:06 31.61168 120.47980 1870 ft 142 kts 197°
2026-05-05 13:06 31.60277 120.47596 1804 ft 132 kts 197°
2026-05-05 13:06 31.59431 120.47232 1678 ft 127 kts 197°
2026-05-05 13:07 31.58604 120.46877 1530 ft 126 kts 196°
2026-05-05 13:07 31.57777 120.46520 1373 ft 126 kts 196°
2026-05-05 13:07 31.56947 120.46163 1215 ft 128 kts 195°
2026-05-05 13:07 31.56106 120.45801 1049 ft 129 kts 195°
2026-05-05 13:08 31.55262 120.45437 888 ft 130 kts 195°
2026-05-05 13:08 31.54410 120.45068 693 ft 131 kts 195°
2026-05-05 13:08 31.53549 120.44693 523 ft 134 kts 196°
2026-05-05 13:08 31.52669 120.44317 356 ft 135 kts 194°
2026-05-05 13:09 31.51785 120.43934 209 ft 136 kts 195°
2026-05-05 13:09 31.50897 120.43551 51 ft 136 kts 197°
2026-05-05 13:09 31.50076 120.43192 27 ft 110 kts 196°
2026-05-05 13:09 31.49513 120.42969 27 ft 57 kts 200°
2026-05-05 13:10 31.49306 120.42867 25 ft 27 kts 205°
2026-05-05 13:10 31.49162 120.42743 29 ft 26 kts 226°
2026-05-05 13:10 31.49104 120.42609 25 ft 15 kts 282°
2026-05-05 13:10 31.49183 120.42570 25 ft 15 kts 22°
2026-05-05 13:11 31.49284 120.42614 25 ft 16 kts 20°
2026-05-05 13:11 31.49397 120.42663 25 ft 18 kts 20°
2026-05-05 13:11 31.49522 120.42719 26 ft 20 kts 21°
2026-05-05 13:11 31.49656 120.42773 25 ft 21 kts 19°
2026-05-05 13:12 31.49783 120.42829 24 ft 20 kts 21°
2026-05-05 13:12 31.49922 120.42888 26 ft 22 kts 20°
2026-05-05 13:12 31.50055 120.42945 25 ft 20 kts 20°
2026-05-05 13:12 31.50188 120.43003 27 ft 18 kts 20°
2026-05-05 13:13 31.50282 120.43041 29 ft 11 kts
2026-05-05 13:13 31.50330 120.42987 27 ft 10 kts 318°
2026-05-05 13:13 31.50397 120.43004 27 ft 11 kts 21°
2026-05-05 13:13 31.50476 120.43038 30 ft 13 kts 19°
2026-05-05 13:14 31.50564 120.43075 26 ft 11 kts 17°
2026-05-05 13:14 31.50613 120.43028 28 ft 3 kts 290°
2026-05-05 13:14 31.50619 120.43008 27 ft 0 kts 290°